Weather History for Dubrovnik / Cilipi, Croatia

Change the Weather History Date:

Saturday, February 1, 2014

  Actual Average Record
Temperature  
Mean Temperature 54 °F -  
Max Temperature 59 °F - - ()
Min Temperature 49 °F - - ()
Degree Days  
Heating Degree Days 11    
Growing Degree Days 4 (Base 50)    
Moisture  
Dew Point 48 °F    
Average Humidity 81    
Maximum Humidity 94    
Minimum Humidity 55    
Precipitation  
Precipitation 0.12 in - - ()
Sea Level Pressure  
Sea Level Pressure 30.03 in    
Wind  
Wind Speed 12 mph ()    
Max Wind Speed 23 mph    
Max Gust Speed -    
Visibility 6.8 miles    
Events Rain    
T = Trace of Precipitation, MM = Missing Value Source: Averaged Metar Reports

Daily Weather History Graph

Daily Weather History Graph

Search for Another Location

Airport:

Trip Planner

Search our weather history database for the weather conditions in past years. The results will help you decide how hot, cold, wet, or windy it might be!

Date:

Astronomy

Feb. 01, 2014 Rise Set
Actual Time 7:01 AM CET 5:00 PM CET
Civil Twilight 6:31 AM CET 5:30 PM CET
Nautical Twilight 5:57 AM CET 6:03 PM CET
Astronomical Twilight 5:24 AM CET 6:36 PM CET
Moon 7:36 AM CET (2/1) 7:18 PM CET (2/1)
Length of Visible Light 10h 58m
Length of Day
9h 59m
Waxing Crescent, 4% of the Moon is Illuminated
Feb 1
Waxing Crescent
Feb 6
First Quarter
Feb 15
Full
Feb 22
Last Quarter
Mar 1
New

Hourly Weather History & Observations

Time (CET) Temp. Dew Point Humidity Pressure Visibility Wind Dir Wind Speed Gust Speed Precip Events Conditions
12:00 AM 51.8 °F 42.8 °F 71% 30.09 in 6.2 mi East 11.5 mph - N/A Rain Light Rain
12:30 AM 51.8 °F 44.6 °F 76% 30.09 in 6.2 mi East 12.7 mph - N/A Rain Light Rain
1:00 AM 52 °F 47 °F 76% 30.12 in 9 mi East 13.4 mph - - Rain Light Rain
1:00 AM 50.0 °F 46.4 °F 87% 30.09 in 6.2 mi East 12.7 mph - N/A Rain Light Rain
1:30 AM 50.0 °F 48.2 °F 94% 30.09 in 6.2 mi East 11.5 mph - N/A Rain Light Rain
2:00 AM 50.0 °F 48.2 °F 94% 30.09 in 6.2 mi East 10.4 mph - N/A Rain Light Rain
2:30 AM 50.0 °F 46.4 °F 87% 30.06 in 6.2 mi East 10.4 mph - N/A Rain Light Rain
3:00 AM 51.8 °F 46.4 °F 82% 30.06 in 6.2 mi East 11.5 mph - N/A   Scattered Clouds
3:30 AM 53.6 °F 46.4 °F 77% 30.06 in 6.2 mi ESE 13.8 mph - N/A   Mostly Cloudy
4:00 AM 54 °F 46 °F 65% 30.08 in 12 mi ESE 13.4 mph - -   Partly Cloudy
4:00 AM 53.6 °F 44.6 °F 72% 30.06 in 6.2 mi ESE 13.8 mph - N/A   Scattered Clouds
4:30 AM 51.8 °F 46.4 °F 82% 30.06 in 6.2 mi East 15.0 mph - N/A Rain Light Rain
5:00 AM 51.8 °F 48.2 °F 88% 30.06 in 6.2 mi East 13.8 mph - N/A Rain Light Rain
5:30 AM 53.6 °F 46.4 °F 77% 30.06 in 6.2 mi East 17.3 mph - N/A   Scattered Clouds
6:00 AM 51.8 °F 48.2 °F 88% 30.06 in 6.2 mi East 13.8 mph - N/A Rain Light Rain
6:30 AM 53.6 °F 48.2 °F 82% 30.06 in 6.2 mi East 12.7 mph - N/A   Scattered Clouds
7:00 AM 53 °F 47 °F 75% 30.07 in 12 mi East 11.2 mph - - Rain Light Rain
7:00 AM 53.6 °F 46.4 °F 77% 30.06 in 6.2 mi East 12.7 mph - N/A   Partly Cloudy
7:30 AM 53.6 °F 48.2 °F 82% 30.06 in 6.2 mi East 11.5 mph - N/A   Scattered Clouds
8:00 AM 55.4 °F 46.4 °F 72% 30.06 in 6.2 mi SE 11.5 mph - N/A   Scattered Clouds
8:30 AM 53.6 °F 46.4 °F 77% 30.06 in 6.2 mi East 12.7 mph - N/A   Scattered Clouds
9:00 AM 55.4 °F 46.4 °F 72% 30.06 in 6.2 mi East 11.5 mph - N/A Rain Light Rain
9:30 AM 53.6 °F 46.4 °F 77% 30.06 in 6.2 mi East 9.2 mph - N/A   Scattered Clouds
10:00 AM 55 °F 47 °F 66% 30.08 in 9 mi East 11.2 mph - - Rain Light Rain
10:00 AM 55.4 °F 46.4 °F 72% 30.06 in 6.2 mi East 11.5 mph - N/A   Scattered Clouds
10:30 AM 59.0 °F 44.6 °F 59% 30.06 in 6.2 mi ESE 12.7 mph - N/A   Partly Cloudy
11:00 AM 59.0 °F 44.6 °F 59% 30.06 in 6.2 mi ESE 16.1 mph - N/A   Partly Cloudy
11:30 AM 59.0 °F 44.6 °F 59% 30.06 in 6.2 mi ESE 13.8 mph - N/A   Scattered Clouds
12:00 PM 59.0 °F 42.8 °F 55% 30.06 in 6.2 mi ESE 13.8 mph - N/A   Scattered Clouds
12:30 PM 57.2 °F 44.6 °F 63% 30.06 in 6.2 mi ESE 17.3 mph - N/A   Scattered Clouds
1:00 PM 54 °F 48 °F 72% 30.06 in 9 mi ESE 15.7 mph - - Rain Light Rain
1:00 PM 53.6 °F 48.2 °F 82% 30.04 in 6.2 mi ESE 13.8 mph - N/A Rain Light Rain
1:30 PM 53.6 °F 48.2 °F 82% 30.04 in 6.2 mi East 15.0 mph - N/A Rain Light Rain
2:00 PM 51.8 °F 48.2 °F 88% 30.01 in 6.2 mi East 11.5 mph - N/A Rain Light Rain
2:30 PM 53.6 °F 50.0 °F 88% 30.01 in 6.2 mi East 10.4 mph - N/A Rain Light Rain
3:00 PM 53.6 °F 50.0 °F 88% 30.01 in 6.2 mi East 10.4 mph - N/A Rain Light Rain
3:30 PM 53.6 °F 50.0 °F 88% 30.01 in 6.2 mi East 9.2 mph - N/A   Scattered Clouds
4:00 PM 53 °F 49 °F 83% 30.00 in 12 mi East 11.2 mph - - Rain Light Rain
4:00 PM 53.6 °F 50.0 °F 88% 29.98 in 6.2 mi East 11.5 mph - N/A   Scattered Clouds
4:30 PM 51.8 °F 48.2 °F 88% 29.98 in 6.2 mi East 12.7 mph - N/A Rain Light Rain
5:00 PM 51.8 °F 48.2 °F 88% 29.98 in 6.2 mi East 10.4 mph - N/A Rain Light Rain
5:30 PM 53.6 °F 48.2 °F 82% 29.98 in 6.2 mi ESE 13.8 mph - N/A Rain Light Rain
6:00 PM 53.6 °F 48.2 °F 82% 29.98 in 6.2 mi ESE 19.6 mph - N/A Rain Light Rain
6:30 PM 53.6 °F 48.2 °F 82% 29.98 in 6.2 mi ESE 20.7 mph - N/A Rain Light Rain
7:00 PM 52 °F 48 °F 82% 29.99 in 12 mi ESE 20.1 mph - - Rain Light Rain
7:00 PM 51.8 °F 48.2 °F 88% 29.98 in 6.2 mi ESE 20.7 mph - N/A Rain Light Rain
7:30 PM 51.8 °F 48.2 °F 88% 29.95 in 6.2 mi ESE 23.0 mph - N/A Rain Light Rain
8:00 PM 53.6 °F 48.2 °F 82% 29.95 in 6.2 mi ESE 23.0 mph - N/A Rain Light Rain
8:30 PM 51.8 °F 50.0 °F 94% 29.95 in 6.2 mi ESE 21.9 mph - N/A Rain Light Rain
9:00 PM 53.6 °F 50.0 °F 88% 29.95 in 6.2 mi East 20.7 mph - N/A Rain Light Rain
9:30 PM 53.6 °F 50.0 °F 88% 29.95 in 6.2 mi East 20.7 mph - N/A Rain Light Rain
10:00 PM 53 °F 50 °F 84% 29.95 in 9 mi East 17.9 mph - - Rain Light Rain
10:00 PM 51.8 °F 50.0 °F 94% 29.92 in 6.2 mi East 17.3 mph - N/A Rain Light Rain
10:30 PM 51.8 °F 50.0 °F 94% 29.92 in 6.2 mi East 10.4 mph - N/A Rain Light Rain
11:00 PM 51.8 °F 50.0 °F 94% 29.92 in 6.2 mi ENE 10.4 mph - N/A Rain Light Rain
11:30 PM 51.8 °F 50.0 °F 94% 29.89 in 6.2 mi East 8.1 mph - N/A Rain Light Rain